DW7680 Weather Reports


Display with metric or nautical units.
time (UTC)temp
F
wind
direction
speed
MPH
gust
MPH
rain 1hr
in
rain 24hr
in
rain mn
in
humidity
%
barometer
mb
20260505054503 59 257 13.0 23.0 0.00 0.00 0.00 29 1004.8
20260505053002 59 266 13.0 30.0 0.00 0.00 0.00 30 1004.9
20260505051503 60 281 11.0 24.0 0.00 0.00 0.00 31 1005.2
20260505041503 60 221 9.0 21.0 0.00 0.00 0.00 30 1005.9
20260505040003 60 245 8.0 24.0 0.00 0.00 0.00 30 1006.1
20260505034502 61 325 11.0 24.0 0.00 0.00 0.00 30 1006.2
20260505033010 61 214 11.0 23.0 0.00 0.00 0.00 29 1005.8
20260505031503 61 282 14.0 27.0 0.00 0.00 0.00 29 1005.7
20260505030003 61 271 13.0 26.0 0.00 0.00 0.00 29 1005.7
20260505024504 61 253 11.0 21.0 0.00 0.00 0.00 29 1005.6
20260505023003 61 240 12.0 26.0 0.00 0.00 0.00 29 1005.7
20260505021503 61 260 17.0 33.0 0.00 0.00 0.00 28 1005.9
20260505020003 61 290 10.0 23.0 0.00 0.00 0.00 27 1006.1
20260505014507 62 244 8.0 23.0 0.00 0.00 0.00 26 1005.9
20260505013003 62 254 10.0 23.0 0.00 0.00 0.00 26 1006.1
20260505011504 62 273 12.0 24.0 0.00 0.00 0.00 25 1006.4
20260505010005 62 263 8.0 21.0 0.00 0.00 0.00 27 1006.2
20260505004516 62 240 6.0 18.0 0.00 0.00 0.00 26 1006.5
20260505003004 63 231 9.0 17.0 0.00 0.00 0.00 27 1006.7
20260505001504 63 253 10.0 21.0 0.00 0.00 0.00 26 1006.7
20260505000007 63 219 7.0 15.0 0.00 0.00 0.00 26 1006.9
20260504234502 64 261 8.0 19.0 0.00 0.00 0.00 26 1006.9
20260504233003 64 254 9.0 21.0 0.00 0.00 0.00 27 1006.9
20260504231511 64 183 11.0 27.0 0.00 0.00 0.00 28 1006.7
20260504230003 65 239 11.0 22.0 0.00 0.00 0.00 28 1006.7
20260504224502 65 244 8.0 25.0 0.00 0.00 0.00 29 1006.9
20260504223004 66 225 8.0 22.0 0.00 0.00 0.00 27 1006.9
20260504221504 65 263 11.0 26.0 0.00 0.00 0.00 28 1006.9
20260504220005 63 266 10.0 19.0 0.00 0.00 0.00 29 1007.6
20260504214504 62 261 13.0 23.0 0.00 0.00 0.00 28 1007.7
20260504213006 62 244 8.0 18.0 0.00 0.00 0.00 26 1007.7
20260504211504 62 259 12.0 27.0 0.00 0.00 0.00 26 1008.1
20260504210003 64 246 9.0 19.0 0.00 0.00 0.00 27 1007.8
20260504204502 64 273 10.0 22.0 0.00 0.00 0.00 25 1008.0
20260504203003 65 286 9.0 21.0 0.00 0.00 0.00 23 1008.3
20260504201503 66 248 8.0 21.0 0.00 0.00 0.00 22 1008.3
20260504200008 67 265 6.0 15.0 0.00 0.00 0.00 22 1008.2
20260504194505 66 251 5.0 18.0 0.00 0.00 0.00 25 1008.1
20260504193009 66 275 6.0 15.0 0.00 0.00 0.00 27 1008.0
20260504191502 64 302 9.0 17.0 0.00 0.00 0.00 26 1008.3
20260504190008 63 317 9.0 21.0 0.00 0.00 0.00 26 1008.2
20260504184503 64 295 6.0 22.0 0.00 0.00 0.00 27 1008.6
20260504183003 64 257 8.0 21.0 0.00 0.00 0.00 27 1008.9
20260504181504 63 261 8.0 15.0 0.00 0.00 0.00 28 1009.4
20260504180003 63 263 9.0 20.0 0.00 0.00 0.00 28 1009.6
20260504174503 63 281 9.0 16.0 0.00 0.00 0.00 28 1009.3
20260504173004 62 266 9.0 19.0 0.00 0.00 0.00 29 1009.4
20260504171507 62 232 7.0 17.0 0.00 0.00 0.00 32 1009.5
20260504081502 54 257 1.0 4.0 0.00 0.00 0.00 58 1012.9